User: anonymous   Login
Location: Bambrugge
(50.9212°N, 3.9299°E)
Time: 12:58:07
(UTC+00:00)
Language:

Cosmos 1697 Rocket - Orbit

View from above orbital plane
View from above orbital plane
View from above satellite
View from above satellite

Ground track
Ground track

The orbit data is extracted from the following two-line orbital elements,

1 16182U 85097B   24202.79857611  .00000305  00000-0  17752-3 0  9994
2 16182  71.0047 317.0475 0005342  84.3338  30.8986 14.16435536  2700
Epoch (UTC): 20 July 2024 19:09:56
Eccentricity: 0.0005342
inclination: 71.0047°
perigee height: 833 km
apogee height: 841 km
right ascension of ascending node: 317.0475°
argument of perigee: 84.3338°
revolutions per day: 14.16435536
mean anomaly at epoch: 30.8986°
orbit number at epoch: 270

The dashed part of the orbit path shows where the satellite is in the earth's shadow,  

DLR